GFSMA_sfc_temp_000.txt.gz
Temp
69 69 65 64 62 62 61 61 65 66 63 64 64 64 66 65 63 61 60 63 64 66 68 72 74 72 71 70 69 69 69 68 68 68 67 67 67 67 67 67 66 66 66
69 69 63 63 63 63 64 64 63 65 64 65 66 69 68 69 65 65 66 63 61 64 65 68 72 72 72 71 69 69 69 68 68 68 67 67 66 66 66 66 65 65 66
69 67 68 65 65 64 63 63 62 63 65 66 67 70 69 67 66 65 66 63 62 63 62 65 67 70 71 71 69 68 68 68 68 68 67 67 66 66 65 65 65 65 66
69 68 68 66 65 65 62 59 57 58 59 60 61 64 66 70 69 68 66 63 61 66 67 63 65 67 69 70 70 70 69 68 68 68 67 67 66 66 65 65 65 65 65
68 69 68 67 66 67 65 63 61 63 62 60 61 66 62 62 69 68 67 61 60 60 65 69 63 64 66 68 70 70 70 69 68 68 67 67 66 65 65 65 65 65 65
69 70 69 67 68 67 65 64 63 65 65 62 61 61 63 67 66 66 67 63 61 61 59 63 75 72 63 67 69 70 71 70 70 69 68 67 66 65 65 65 65 65 65
69 69 70 68 67 66 64 63 63 62 63 63 61 60 62 62 65 63 65 70 64 60 60 61 68 78 75 64 67 70 71 71 70 70 68 68 66 65 65 65 65 65 65
68 69 67 67 66 66 64 63 62 61 62 63 57 57 55 62 63 62 64 64 67 65 59 59 65 74 77 78 71 67 70 71 71 70 68 67 66 65 65 65 65 65 65
67 66 66 66 65 65 64 63 63 61 59 62 61 57 52 51 51 63 64 61 63 62 63 60 60 69 74 77 73 68 63 65 69 70 68 67 66 65 65 65 65 65 65
66 66 65 65 64 64 63 63 65 62 61 58 62 63 59 57 51 51 59 57 58 59 63 61 59 63 71 76 72 66 59 58 63 67 68 67 66 65 65 65 65 65 65
65 65 64 63 63 63 62 61 60 60 61 59 59 60 59 59 57 53 50 56 56 56 56 62 61 56 62 72 75 71 57 56 58 63 66 67 66 66 65 65 65 65 65
64 63 63 61 61 60 60 60 60 59 59 59 59 59 58 56 56 55 53 54 54 56 53 56 56 55 56 63 70 63 56 55 56 60 63 65 65 65 65 65 65 65 65
59 60 59 58 59 58 58 58 58 57 58 58 58 58 59 58 58 57 55 53 52 57 54 52 57 56 55 55 60 60 56 53 55 57 59 61 63 64 64 65 65 65 65
54 56 55 55 56 56 56 56 56 57 57 57 56 58 58 59 59 58 55 53 50 52 54 55 53 54 54 54 54 53 66 50 52 54 56 57 59 60 61 62 63 64 64
56 55 54 53 53 53 53 53 53 54 55 55 55 56 56 59 58 58 57 56 51 46 50 56 55 51 53 54 53 54 55 55 50 50 52 54 56 57 58 59 60 61 62
53 53 52 52 52 51 52 51 51 53 52 54 55 54 54 56 58 57 56 55 54 51 47 56 57 56 51 50 51 51 52 51 48 48 48 50 53 54 55 56 57 57 58
52 50 50 50 49 49 50 49 49 49 49 50 52 53 53 54 54 56 55 54 53 53 49 53 57 57 54 50 48 49 51 51 50 45 46 48 50 50 51 52 52 53 54
50 49 49 48 48 48 48 47 46 47 47 47 48 49 50 54 52 53 54 52 52 54 51 49 54 54 51 53 50 47 48 49 50 47 45 47 48 49 48 48 48 49 49
48 48 48 46 46 46 46 46 46 45 45 46 47 47 48 49 49 51 52 52 52 53 53 52 51 55 54 52 46 45 44 45 48 47 44 45 47 48 47 47 47 46 46
46 46 46 45 45 45 45 44 44 43 43 42 42 42 43 44 44 47 49 49 51 50 51 51 50 52 53 51 45 42 40 42 40 43 45 45 45 46 46 46 46 45 45
46 46 44 44 44 44 44 43 42 40 38 37 38 39 40 40 40 41 43 45 47 47 48 49 48 50 50 49 41 42 41 38 37 38 38 41 44 44 44 43 44 44 43
45 45 43 43 42 43 39 36 35 34 34 34 34 37 39 39 39 38 38 38 38 39 40 45 47 48 49 51 49 41 38 35 34 35 35 33 38 41 41 42 42 41 41
43 42 42 41 40 40 37 35 34 34 33 34 35 36 38 41 39 40 38 36 36 37 36 40 41 48 49 53 53 42 38 40 37 34 38 31 32 33 37 39 39 39 39
41 41 40 39 38 38 34 34 33 33 32 34 34 36 36 37 38 39 39 38 39 41 41 41 44 46 52 55 55 48 41 38 35 34 33 29 31 29 32 33 38 38 38
39 39 38 37 35 34 33 32 32 32 31 32 35 35 36 36 36 37 36 35 37 38 39 40 41 42 41 40 41 50 36 35 31 31 30 29 29 28 31 32 33 36 36
38 36 34 34 33 32 32 32 31 31 30 32 34 35 34 35 34 34 35 34 33 36 40 36 36 39 41 43 37 43 41 37 33 30 32 27 27 27 24 29 32 34 35

GFSMA_sfc_temp_003.txt.gz
Temp
73 74 72 72 70 70 65 64 62 60 61 63 63 62 65 67 67 68 68 64 65 68 70 71 72 73 72 70 69 69 69 69 69 69 68 67 67 67 67 67 67 66 66
72 73 73 71 70 68 67 65 64 64 63 64 63 64 65 66 68 71 70 68 62 63 67 68 70 72 73 71 69 69 69 69 69 69 68 67 66 66 66 66 66 66 66
70 70 71 71 70 68 65 63 60 62 64 64 64 65 65 67 69 67 70 70 68 60 63 66 68 69 71 71 70 69 69 68 68 68 68 67 66 66 66 66 65 65 65
71 71 71 69 68 69 68 65 63 61 62 62 60 62 66 68 70 70 69 66 69 72 64 63 65 67 68 69 70 70 69 68 68 68 67 67 66 66 66 65 65 65 65
70 71 70 69 68 69 67 66 65 64 62 64 63 63 64 66 68 69 67 67 68 68 71 65 62 64 66 67 69 70 71 69 69 68 68 67 66 66 65 65 65 65 65
71 71 71 69 68 68 66 65 63 65 64 63 63 63 64 64 65 67 67 70 69 68 67 68 71 64 62 65 67 69 70 71 70 69 68 68 67 66 65 65 65 65 65
71 70 71 69 69 67 66 65 64 62 63 65 60 61 64 65 64 68 68 65 68 69 67 67 67 70 70 63 66 69 70 70 71 70 69 68 67 66 65 65 65 65 65
70 70 69 68 68 66 65 65 63 61 62 65 59 58 55 61 66 63 65 65 68 70 67 67 66 65 66 69 65 66 69 69 71 70 69 67 66 65 65 65 65 65 65
70 69 68 67 66 66 64 64 64 61 59 62 63 59 53 52 57 63 65 64 64 64 65 65 64 65 65 64 65 65 63 64 68 69 69 67 67 66 65 65 65 65 65
69 69 68 67 66 65 63 63 65 63 61 58 61 63 62 60 52 50 61 62 63 62 57 60 63 65 64 65 64 62 59 59 62 67 68 68 67 66 65 65 65 65 65
68 67 67 65 64 64 64 63 62 61 62 60 59 59 59 60 60 56 52 56 62 64 57 55 55 62 64 65 64 62 56 55 59 63 66 67 67 66 65 65 65 65 65
64 65 65 63 62 61 61 61 61 60 59 59 60 59 58 56 55 56 55 56 56 62 64 58 55 56 58 61 62 59 55 54 56 60 63 65 66 66 65 65 65 65 65
60 60 60 58 58 59 59 59 58 57 57 56 57 58 60 59 60 59 57 55 55 59 60 63 61 59 57 57 60 56 56 51 54 57 59 62 64 64 64 65 65 65 65
58 59 58 57 57 57 56 56 56 56 56 56 56 56 58 60 61 61 59 56 52 54 58 57 64 59 56 56 56 53 57 51 50 53 56 58 60 61 61 62 63 63 64
58 58 56 55 55 55 55 54 55 54 55 55 55 55 56 57 58 59 59 59 54 48 51 57 58 64 60 56 54 54 54 54 50 49 50 53 56 58 58 59 60 61 62
56 55 54 54 54 54 53 53 53 53 53 53 54 54 54 56 57 58 58 56 57 53 48 56 58 61 62 57 55 52 53 51 49 47 47 49 51 55 56 56 57 58 60
54 53 53 53 52 52 52 51 51 51 51 51 52 52 52 54 53 55 55 54 52 53 49 54 58 60 59 57 55 53 52 50 51 46 45 47 48 50 52 52 53 54 55
53 52 52 52 51 51 51 50 49 50 49 49 50 50 50 54 52 53 53 51 52 53 51 48 54 56 57 60 59 55 52 51 49 48 45 45 47 47 48 49 49 50 51
52 52 51 49 49 49 49 49 48 48 48 48 48 48 48 49 48 50 51 51 51 53 52 50 50 55 55 58 56 55 52 51 49 49 45 43 45 46 47 47 48 48 48
50 50 49 49 48 48 48 48 47 46 46 46 45 44 44 44 44 45 46 47 50 49 49 49 49 50 53 55 56 51 43 45 44 44 44 43 43 45 46 47 47 48 47
49 49 48 48 47 48 48 46 45 43 42 40 40 40 40 40 40 40 41 41 42 44 46 46 46 47 48 49 49 50 46 44 39 41 40 38 42 45 47 46 49 48 47
48 47 46 46 45 47 42 39 39 39 37 35 34 36 38 38 38 37 37 37 38 38 37 38 43 43 46 49 52 50 46 37 37 38 37 36 38 38 43 48 46 46 45
46 45 45 44 43 43 40 38 36 36 34 33 33 35 36 39 38 39 38 37 36 36 35 39 35 38 44 49 51 49 45 40 41 37 38 32 34 33 33 38 43 43 43
44 43 43 42 41 41 37 36 35 33 32 33 33 35 35 35 37 37 37 37 39 40 40 40 40 41 43 48 46 47 47 43 35 36 38 31 31 31 33 34 40 42 41
42 42 41 38 36 35 35 34 33 32 32 33 35 35 36 35 35 36 33 32 34 36 40 39 38 39 41 41 41 42 38 36 31 32 33 32 29 29 32 32 32 37 39
41 39 36 36 34 33 34 34 34 32 31 32 34 35 34 34 33 33 32 32 31 34 37 38 38 37 37 41 39 40 37 38 35 30 33 30 29 30 27 31 32 32 32

GFSMA_sfc_temp_006.txt.gz
Temp
65 65 63 63 63 63 61 60 59 58 57 59 59 59 60 60 62 63 65 65 64 67 71 74 74 73 72 70 70 69 69 70 69 69 68 68 67 67 67 67 66 66 66
64 64 63 63 62 62 61 61 60 61 61 60 60 61 61 61 62 64 66 66 63 64 66 70 72 73 73 72 69 69 69 69 69 69 68 67 67 66 66 66 66 66 66
63 63 62 62 61 61 60 59 58 58 58 61 60 61 61 62 62 63 63 66 65 62 63 65 68 70 71 72 70 69 69 68 68 69 68 68 67 66 66 66 66 66 66
65 63 61 60 59 60 59 57 56 56 56 57 57 57 58 61 62 63 65 65 65 67 63 63 64 66 68 69 71 70 70 68 68 68 68 68 68 66 66 66 66 67 67
65 62 61 59 59 59 58 57 55 55 54 55 57 57 56 57 61 64 64 64 63 64 66 64 62 63 65 67 69 71 70 70 69 68 68 68 67 66 66 66 67 67 66
64 62 61 60 60 58 57 56 55 55 55 54 60 57 54 56 58 59 62 65 64 65 64 64 63 61 61 65 67 70 72 71 70 69 68 68 67 66 66 66 67 66 66
64 61 60 60 60 58 57 57 55 54 52 54 52 51 52 56 55 59 59 61 62 63 63 64 64 64 64 63 65 68 71 72 70 70 69 68 67 66 66 66 66 65 66
63 63 60 59 59 57 56 55 55 52 52 53 49 49 46 51 54 55 57 58 58 59 61 64 63 64 64 63 63 65 68 71 71 69 69 67 67 66 66 65 65 65 65
62 62 61 59 58 57 55 54 53 53 49 51 52 48 45 43 48 54 53 55 54 56 58 59 61 63 64 63 62 62 60 63 69 70 67 67 66 66 66 65 65 65 65
61 62 61 60 57 56 55 54 57 52 51 48 50 55 50 50 46 45 50 52 53 54 54 56 58 60 61 62 61 59 57 56 61 67 67 66 66 66 66 66 65 65 65
62 62 61 59 56 55 54 52 52 52 51 49 49 48 49 50 50 47 45 49 51 52 52 53 53 54 57 58 60 59 55 53 55 61 66 66 65 66 66 66 66 65 65
56 57 57 54 53 53 52 50 50 50 49 49 49 50 49 47 47 47 46 48 48 51 52 52 50 51 54 56 58 55 55 52 53 56 61 64 65 65 66 66 66 66 65
54 53 54 52 52 51 51 51 49 48 48 48 48 48 50 50 51 50 48 47 46 51 52 51 51 51 53 53 54 54 56 51 51 53 56 59 62 64 64 64 65 66 65
52 54 53 52 52 51 50 49 48 48 47 47 47 48 49 50 51 51 50 47 44 46 50 48 50 52 51 51 53 53 56 51 49 50 52 54 57 60 61 62 63 64 64
55 52 51 50 50 49 48 47 46 46 47 47 46 46 47 48 48 49 50 49 45 40 42 48 46 51 50 51 52 51 52 52 50 48 49 50 53 55 58 59 60 61 62
51 50 50 49 48 48 47 46 44 45 45 45 47 46 46 47 48 48 49 49 49 45 41 48 50 47 49 52 51 50 50 50 49 48 47 47 49 52 55 57 57 58 59
50 50 49 48 48 47 47 45 44 45 44 44 45 45 45 46 45 46 46 47 46 46 41 45 49 49 46 46 48 48 49 48 50 47 45 46 46 47 49 53 54 55 57
49 48 48 48 48 47 46 45 44 45 44 43 43 43 43 48 44 45 45 44 45 46 43 41 45 46 46 46 48 46 49 49 46 48 45 45 45 45 46 46 49 51 53
48 48 48 46 46 45 45 44 44 43 43 43 42 42 42 42 41 42 43 43 44 47 44 42 42 46 47 44 43 45 46 46 46 48 45 43 44 45 45 45 46 48 50
47 46 46 45 44 44 45 45 44 42 41 42 41 40 40 39 38 38 39 39 41 39 40 39 41 42 44 45 42 39 39 39 40 46 46 43 43 44 44 44 44 46 49
46 45 44 43 43 44 45 42 41 38 37 37 37 38 37 37 39 38 37 36 36 36 37 36 37 39 40 40 38 39 38 38 37 39 40 42 40 44 45 44 45 45 47
43 43 41 41 40 44 41 40 37 35 35 34 33 34 35 36 36 37 37 37 36 33 32 32 33 33 35 38 39 37 36 32 36 34 36 38 36 39 39 44 45 44 45
40 39 39 39 38 39 40 38 37 33 32 32 31 32 33 36 36 36 36 36 36 36 34 34 32 34 34 35 37 35 34 33 37 34 35 33 33 34 34 39 41 42 44
38 38 37 37 36 37 37 36 35 32 31 31 31 31 31 31 33 34 34 33 33 35 37 37 34 35 36 39 39 39 36 34 35 34 33 33 31 31 33 34 40 42 43
37 36 36 34 33 33 35 35 34 32 30 30 32 32 33 32 34 36 32 30 30 32 38 38 39 39 39 39 39 37 33 33 32 32 32 30 29 29 30 31 33 39 40
36 34 34 33 34 31 34 35 34 32 30 31 33 33 34 33 33 33 31 30 29 30 32 34 35 36 38 37 37 36 35 33 32 30 32 27 28 29 27 30 31 33 34

GFSMA_sfc_temp_009.txt.gz
Temp
59 59 59 58 58 58 58 57 56 55 55 56 57 57 57 59 59 60 62 63 64 67 69 72 74 74 72 70 70 70 70 70 70 70 68 68 68 68 67 67 66 66 66
59 59 58 58 57 57 56 55 55 57 56 58 58 58 59 59 59 60 61 62 62 65 67 69 71 73 73 72 70 70 70 70 70 70 68 67 67 67 67 66 66 66 66
59 58 57 55 55 56 56 54 54 54 53 55 56 58 59 61 60 60 61 62 62 61 63 66 68 69 70 71 70 69 69 69 69 69 68 68 67 67 66 66 66 66 66
60 57 56 54 56 55 54 53 51 50 50 50 50 53 55 56 58 59 60 61 62 64 61 62 64 66 67 69 70 70 70 69 69 69 68 68 67 66 66 66 66 66 66
61 57 55 55 57 54 53 54 52 51 50 50 52 52 51 52 54 60 59 61 60 62 62 61 62 63 65 66 68 70 71 70 69 69 68 67 67 66 66 66 66 67 67
60 57 55 55 56 54 52 53 52 51 50 50 55 54 50 50 51 52 55 59 61 61 61 62 62 61 61 64 66 68 70 71 70 69 69 68 67 66 66 65 66 66 67
59 57 55 55 54 53 52 53 51 50 49 50 47 47 48 50 51 51 52 52 55 58 59 60 60 61 61 61 63 66 69 70 71 70 69 68 67 66 66 65 65 66 67
57 57 56 54 54 53 53 52 50 49 48 49 46 44 41 46 48 51 52 52 51 55 57 60 61 60 60 62 58 63 66 69 71 71 69 67 67 66 66 66 66 66 66
57 57 55 54 53 52 51 50 50 49 46 48 48 46 42 40 44 49 49 49 49 49 53 56 59 59 60 60 61 61 59 61 66 69 69 67 65 65 65 66 66 66 66
57 57 57 55 53 51 50 49 52 49 47 44 46 52 47 46 43 43 46 48 49 51 48 51 55 58 60 59 58 55 55 56 58 63 65 67 67 64 65 65 65 65 65
56 57 55 54 52 50 50 49 47 46 46 45 45 44 45 46 45 44 41 47 48 48 50 48 49 51 55 57 56 56 54 52 54 58 61 63 66 66 65 64 65 65 65
53 53 53 50 50 48 49 47 47 47 45 44 45 45 45 44 44 44 42 44 45 47 47 49 47 48 50 51 56 55 53 52 52 55 58 59 61 64 66 64 64 65 65
50 50 50 50 49 50 49 49 48 46 45 44 43 45 45 46 47 46 44 43 43 47 48 48 49 51 51 49 51 53 54 52 52 54 55 56 57 59 61 64 63 63 65
49 49 49 48 48 48 48 47 47 47 44 43 42 41 44 46 47 47 44 43 40 42 46 46 45 47 47 48 50 50 51 49 49 50 51 53 54 55 56 58 62 62 62
50 48 47 46 46 45 46 47 44 43 42 43 42 42 43 44 45 46 46 45 41 36 38 45 45 49 52 47 49 49 50 50 50 48 48 49 51 52 53 55 55 60 60
47 46 45 44 44 46 46 45 44 43 42 41 43 40 41 43 44 43 44 44 43 40 36 44 46 46 47 48 48 48 48 50 48 47 46 47 48 49 50 51 52 54 59
46 45 45 45 46 46 46 44 43 42 41 41 40 40 40 41 41 42 42 43 42 42 37 41 45 47 44 46 47 44 47 47 47 46 44 45 45 46 46 46 47 49 52
46 46 46 46 46 45 44 42 41 41 41 40 40 37 39 44 40 40 40 40 40 41 39 37 41 43 42 43 44 43 46 47 46 46 46 44 44 45 45 44 44 44 45
45 45 46 44 44 43 42 41 41 41 40 39 39 38 39 39 38 38 37 37 39 42 39 37 36 39 40 40 42 41 41 41 44 47 45 41 42 43 44 44 44 44 44
43 43 43 43 42 41 42 41 41 39 37 37 35 35 35 34 33 33 35 34 36 35 36 35 35 37 38 40 38 39 37 36 38 43 44 43 41 43 44 44 44 44 44
43 42 41 39 39 39 42 39 36 34 32 32 32 34 35 36 39 38 36 34 34 33 33 33 32 34 35 35 36 35 34 34 35 37 36 37 37 38 41 44 44 45 44
40 39 37 36 35 40 40 38 36 31 31 31 30 32 33 35 35 36 36 36 35 31 30 30 31 30 32 34 36 34 33 31 28 33 32 35 35 37 37 42 44 43 44
36 34 34 34 33 32 38 37 37 33 31 30 29 29 31 34 34 33 34 35 34 35 34 33 30 30 31 34 35 31 33 32 31 33 33 34 26 32 32 36 38 39 40
33 33 32 31 30 34 36 36 35 32 30 30 30 30 30 30 31 31 31 30 31 33 34 35 34 33 34 35 34 35 34 34 33 34 34 32 25 26 25 29 37 38 40
32 30 31 30 29 29 34 35 34 31 30 30 32 32 33 31 33 35 32 30 29 31 35 36 37 37 37 37 37 33 30 30 30 33 32 31 29 28 24 24 29 36 37
31 30 31 29 31 28 32 34 34 31 28 29 30 31 33 32 34 34 32 30 28 30 31 31 32 34 37 36 36 35 32 29 29 27 28 32 28 29 26 21 25 32 33

GFSMA_sfc_temp_012.txt.gz
Temp
58 58 57 56 56 56 56 55 58 58 57 55 56 56 56 56 57 58 60 62 63 66 68 70 71 72 72 70 70 70 70 70 70 70 69 68 68 68 68 67 67 66 66
57 57 56 56 55 55 54 54 53 53 53 54 55 57 57 57 59 59 58 59 61 63 65 67 69 71 72 71 70 69 70 70 70 70 69 68 67 67 67 67 66 66 66
57 56 55 54 54 54 54 52 52 51 50 52 52 53 55 56 56 57 58 59 60 61 62 64 65 68 69 70 70 69 69 69 69 69 68 68 67 67 67 66 66 66 66
58 55 54 53 53 53 52 50 50 49 49 48 47 48 51 52 52 53 54 56 59 61 62 62 64 65 66 68 69 70 70 69 69 69 68 68 67 67 67 66 66 66 66
58 55 53 53 54 52 50 51 50 49 48 49 50 50 49 49 50 55 53 54 56 58 60 62 61 62 63 65 67 69 71 70 68 69 69 68 67 67 66 66 66 66 66
58 54 53 53 53 51 50 49 50 49 49 48 53 51 48 49 48 49 50 54 54 55 56 59 59 60 60 63 65 67 69 70 71 69 67 68 67 66 66 66 66 66 66
57 54 53 53 52 51 50 50 49 49 47 47 46 45 46 47 48 51 49 48 50 52 53 53 56 59 60 61 62 64 66 68 70 70 70 67 67 66 65 65 66 66 66
55 55 53 52 51 50 50 50 49 47 47 47 45 42 40 45 46 48 50 49 48 48 51 53 53 58 59 59 59 61 64 67 68 69 69 68 65 66 65 65 65 65 66
56 54 54 52 50 50 49 49 49 47 45 45 46 44 39 37 44 47 47 49 48 47 47 49 52 56 58 58 59 58 56 56 61 67 68 67 67 65 65 65 65 65 65
55 54 53 52 50 49 48 47 49 45 44 43 44 48 45 42 38 40 45 48 50 50 46 46 48 52 56 57 58 56 53 54 56 58 63 65 65 66 65 64 65 65 66
53 54 52 51 49 48 47 47 46 44 45 43 43 41 42 41 41 39 38 44 49 49 48 46 45 45 51 53 55 55 53 52 53 57 59 61 63 64 64 64 63 64 65
47 49 51 49 49 48 48 46 46 45 44 45 44 42 41 39 40 38 38 40 41 46 50 49 47 45 45 47 53 54 53 52 53 55 58 59 61 62 62 63 63 63 64
48 46 47 46 46 45 45 45 45 45 45 44 44 43 44 43 43 42 40 39 39 44 46 48 47 47 48 44 46 51 54 51 51 52 54 56 57 59 59 60 61 61 64
46 47 45 44 45 45 45 45 43 43 43 43 43 42 42 43 44 43 41 38 36 38 42 44 47 47 48 46 46 50 50 49 49 49 50 52 53 54 55 56 56 58 61
47 45 44 44 44 44 44 43 42 43 44 43 42 41 41 42 41 42 42 41 38 32 35 41 43 47 47 47 47 45 46 49 48 48 48 48 50 52 52 53 54 53 56
45 44 44 44 44 43 44 44 43 42 41 41 41 39 40 41 41 42 42 41 40 37 33 41 43 46 47 49 49 48 44 49 48 47 46 46 47 48 48 50 50 51 53
45 44 43 44 44 43 44 43 41 41 40 39 39 39 39 39 39 39 39 40 39 38 34 38 42 44 43 44 46 46 47 45 45 44 43 44 44 45 44 45 46 46 48
44 45 44 44 44 43 43 41 39 40 37 37 37 38 38 42 38 37 36 37 38 38 36 33 38 40 40 42 42 42 45 48 45 47 46 44 44 44 42 44 42 43 44
45 44 44 42 42 41 40 39 38 38 37 38 37 36 36 36 34 33 33 32 33 38 36 34 33 36 38 38 40 41 41 42 44 47 45 44 42 43 43 42 42 43 44
41 41 41 41 40 40 39 39 38 36 33 34 33 32 33 33 33 33 33 33 34 33 33 32 32 34 36 38 37 35 35 37 38 43 45 43 42 41 41 42 43 43 44
43 40 39 37 36 37 39 35 33 31 30 30 31 32 32 34 37 36 35 33 33 31 31 30 30 31 33 33 33 34 33 32 34 35 37 39 38 38 39 42 43 44 43
40 38 36 35 34 38 37 37 35 31 32 31 30 31 31 34 33 35 35 35 34 31 29 29 29 28 29 31 33 32 33 32 30 30 32 32 34 34 37 36 41 42 42
35 34 33 32 31 31 36 37 36 32 30 30 29 29 30 32 33 32 33 34 34 34 33 31 29 30 30 32 32 29 30 30 30 34 33 32 31 33 32 36 39 39 40
33 32 31 31 30 32 35 36 35 31 29 29 30 30 30 31 32 32 31 30 31 31 32 33 32 32 34 34 33 33 32 31 31 33 34 31 31 29 23 27 37 39 39
30 30 31 29 28 28 33 34 33 28 28 29 31 31 31 31 33 35 32 30 30 30 34 35 36 36 36 36 35 32 29 28 26 28 31 33 33 25 24 23 27 36 37
29 29 29 28 29 27 31 33 32 29 26 27 28 30 32 31 32 32 30 29 28 30 31 31 32 34 35 34 35 33 31 28 27 24 27 30 28 27 29 18 21 23 25

GFSMA_sfc_temp_015.txt.gz
Temp
56 56 56 55 55 55 54 54 54 54 54 54 55 55 56 55 56 56 57 61 62 64 66 68 70 71 71 71 69 69 70 71 70 70 69 68 68 68 68 67 67 66 66
56 56 55 54 54 54 53 52 51 51 50 51 52 53 54 55 55 56 55 56 60 62 64 66 67 68 70 71 70 69 69 70 70 70 70 68 68 68 67 67 66 66 66
55 56 54 54 53 53 52 51 50 48 48 49 49 49 51 53 51 52 52 53 55 59 61 63 65 67 68 69 69 69 69 68 68 69 69 69 68 67 67 66 66 66 66
56 54 53 52 52 52 51 49 48 48 47 46 46 47 48 49 50 51 51 50 52 56 59 61 63 64 65 66 68 69 70 70 68 67 69 69 68 67 67 66 66 66 66
56 54 52 52 51 51 49 49 48 48 47 47 48 48 47 47 48 52 51 52 51 52 53 57 61 61 63 64 65 67 68 69 69 69 68 68 68 68 67 66 66 66 66
55 53 52 52 51 49 48 48 48 47 47 47 51 50 46 47 46 46 47 51 50 51 50 53 50 54 60 63 64 65 66 67 68 69 69 66 68 68 66 66 66 66 66
55 52 51 51 50 49 49 48 47 47 46 45 44 44 45 46 46 47 47 46 47 49 49 49 49 50 54 61 63 65 66 64 63 66 67 67 65 65 66 66 66 66 66
55 54 52 52 51 49 48 47 47 45 45 44 44 40 39 43 44 47 47 47 46 46 48 50 49 51 52 54 55 61 60 62 59 58 60 63 65 64 64 65 66 66 66
56 54 53 53 51 51 50 48 47 46 44 44 45 43 37 36 38 43 45 45 45 44 45 46 48 50 50 51 55 56 57 57 60 57 59 59 62 63 63 64 65 66 66
55 56 55 53 52 50 47 46 48 44 43 42 43 47 44 41 36 34 41 43 44 45 43 43 45 47 49 49 53 54 53 54 56 59 59 59 61 61 64 64 64 65 66
52 54 54 54 52 50 48 46 45 43 43 42 43 41 40 39 39 36 35 40 43 43 43 43 43 43 47 48 46 49 52 52 52 58 59 59 59 61 62 64 65 63 63
48 48 49 48 47 46 43 43 45 45 45 44 44 42 42 40 37 36 33 37 38 41 43 44 43 42 43 44 50 52 51 50 51 54 57 58 58 60 61 62 63 64 63
42 43 45 46 43 44 43 45 43 44 44 42 42 42 43 41 42 39 36 36 36 40 40 42 43 45 46 43 45 50 51 49 49 51 53 55 56 57 58 59 60 60 62
41 41 42 44 44 44 44 43 42 42 42 41 40 41 42 41 41 41 38 35 34 36 39 38 42 43 44 43 46 49 47 47 49 49 50 53 54 54 55 55 56 57 56
43 41 42 43 44 44 44 43 41 41 41 42 41 40 38 38 38 39 40 39 35 31 33 38 38 43 43 43 45 45 46 47 48 48 49 49 50 53 53 53 53 54 55
41 42 43 44 44 43 42 42 41 42 41 39 40 38 37 38 39 39 39 39 39 35 31 37 39 39 41 46 45 44 45 48 47 46 46 47 46 47 48 49 51 52 52
42 43 44 45 43 42 42 41 41 40 39 38 38 38 37 38 38 37 37 38 37 36 32 36 38 40 38 39 42 43 44 43 44 45 45 43 44 44 45 45 45 46 47
45 45 43 43 43 43 42 40 38 39 37 36 36 36 36 40 37 36 35 34 35 36 34 32 36 36 37 38 39 38 42 45 42 45 45 45 45 44 43 42 42 42 43
44 43 42 40 41 40 39 38 37 36 36 35 35 34 34 34 32 32 32 31 32 36 34 32 32 34 35 36 36 38 38 39 42 45 44 44 44 45 43 42 42 41 41
42 41 41 40 39 37 37 37 36 34 32 32 32 32 31 31 30 31 32 32 33 32 32 31 31 31 33 36 35 33 33 35 36 41 43 42 43 45 43 42 41 40 43
43 40 38 36 35 36 37 34 33 32 31 30 31 31 32 33 36 35 33 31 31 30 30 30 30 30 30 30 29 31 31 32 33 34 35 37 38 39 41 42 42 43 44
39 37 36 35 33 36 37 37 35 30 30 30 29 30 31 33 32 34 34 34 34 30 29 29 28 28 29 30 31 30 28 28 27 30 33 34 35 34 36 38 41 42 43
35 34 33 32 31 31 36 36 36 31 29 29 28 28 30 32 33 31 32 33 33 33 32 31 28 28 28 30 30 28 29 28 28 31 29 30 30 32 36 36 39 41 41
32 31 31 31 29 31 34 35 34 30 28 28 29 29 29 29 31 32 32 30 30 31 33 32 30 31 31 32 33 32 30 30 30 30 30 28 31 33 27 30 36 39 40
30 30 30 29 28 28 32 33 32 25 26 26 29 29 29 29 31 33 30 28 28 29 34 35 36 34 35 35 34 32 28 27 25 27 25 28 28 30 29 28 30 37 39
30 29 29 28 28 25 30 32 31 26 25 27 28 30 32 31 32 32 29 28 27 29 30 31 31 33 34 34 34 33 31 27 27 24 24 26 24 25 24 21 21 22 24

GFSMA_sfc_temp_018.txt.gz
Temp
56 56 56 55 55 54 54 53 53 53 53 53 54 54 54 55 55 55 55 60 62 64 66 68 68 69 70 70 70 69 69 70 71 70 70 69 69 68 68 68 67 67 67
56 55 55 54 53 54 53 52 51 50 50 51 51 52 52 53 53 53 52 53 59 61 63 66 67 68 68 69 69 69 69 69 69 70 70 69 69 68 68 67 67 66 67
55 55 54 53 53 53 52 51 50 48 47 49 49 49 51 52 51 51 51 51 53 58 61 63 65 66 67 67 67 68 69 68 69 69 68 69 68 68 68 67 67 67 67
55 54 53 52 53 52 51 49 48 47 47 47 47 48 48 49 51 51 51 51 51 53 55 60 62 63 64 65 67 68 69 69 69 68 68 67 68 68 68 68 67 67 66
55 52 52 52 51 50 49 48 47 47 46 46 47 47 46 47 49 52 51 51 51 52 51 56 58 58 61 63 65 67 67 68 68 68 68 68 66 66 67 68 68 67 66
54 52 51 51 50 48 48 46 47 46 47 47 51 50 46 46 46 46 48 52 50 51 50 52 50 51 57 61 62 64 66 67 65 65 65 64 66 65 64 66 68 68 67
53 52 52 50 50 49 50 48 46 46 45 44 44 44 44 45 45 46 47 47 49 50 50 50 49 50 52 57 59 62 64 64 64 63 61 61 62 62 64 64 65 67 67
53 53 52 52 50 50 47 47 46 44 45 44 43 41 40 43 44 45 46 48 47 47 49 50 49 50 50 50 53 59 60 61 63 64 61 59 59 60 61 64 65 65 66
54 52 53 53 51 51 51 50 48 46 46 43 44 44 37 37 38 43 45 45 45 45 45 47 48 49 49 48 51 51 54 55 59 61 62 60 59 58 59 60 63 64 64
52 53 53 52 52 51 51 48 47 45 44 42 42 46 44 42 37 37 41 44 44 45 44 44 45 47 48 47 49 50 50 52 54 57 59 61 59 59 59 59 60 63 64
49 51 52 52 50 48 49 48 45 45 45 43 42 40 40 40 40 38 35 39 43 44 44 43 43 43 45 47 46 48 50 50 51 54 56 58 61 58 58 58 60 62 64
45 45 46 45 44 43 42 44 45 45 43 44 42 42 41 39 38 37 34 36 37 42 43 44 43 43 44 44 48 51 50 49 50 52 54 55 59 60 59 57 58 61 62
40 39 41 41 42 42 42 42 43 42 43 42 41 41 41 40 39 37 35 35 35 39 40 42 43 44 45 43 44 48 50 48 48 50 52 53 55 58 58 58 57 59 60
38 40 41 41 41 41 41 42 43 42 42 42 41 39 37 39 41 41 40 36 34 36 37 37 41 42 43 44 44 48 46 46 47 48 49 50 52 53 54 56 56 56 58
41 40 40 40 41 43 44 43 41 41 41 40 39 39 40 41 40 41 41 38 36 31 33 37 37 41 43 43 44 44 43 45 46 46 47 48 50 51 51 53 55 55 55
40 40 40 41 41 43 43 42 41 41 40 40 41 39 39 39 39 39 39 38 37 35 31 37 38 39 41 45 44 44 43 47 46 45 45 46 47 47 46 47 49 52 53
40 41 42 43 43 43 41 39 40 41 40 39 39 37 37 37 36 36 37 37 36 35 32 36 37 39 38 38 41 41 42 41 42 44 44 45 45 45 45 44 44 46 48
43 43 44 43 42 40 40 38 37 37 36 36 36 35 35 39 35 35 34 33 33 35 33 31 35 35 35 38 39 38 41 43 41 44 43 44 44 44 44 44 43 43 44
42 42 42 41 41 40 38 37 37 36 35 34 33 32 33 33 31 32 32 32 32 35 34 32 32 35 35 35 37 37 38 39 41 44 43 43 43 44 45 44 43 42 42
41 41 41 39 38 37 37 36 36 34 32 32 32 32 31 31 30 30 31 30 32 30 31 30 30 31 32 35 34 33 32 35 35 41 42 42 42 43 44 44 43 43 42
41 38 37 36 35 35 37 33 33 32 31 30 31 32 32 32 36 35 33 31 30 29 30 30 30 30 31 31 30 32 31 32 34 35 35 37 37 39 40 42 43 43 42
39 37 35 33 32 35 36 36 35 31 31 31 30 30 31 33 32 33 34 34 33 30 29 28 28 28 29 31 32 30 29 28 26 33 33 33 36 36 37 38 40 41 42
33 32 32 32 31 31 35 36 35 31 30 29 28 28 30 32 32 32 33 34 33 33 31 30 28 29 29 32 32 29 29 29 28 32 32 30 33 32 35 37 38 39 41
31 30 30 30 29 31 34 34 34 29 28 28 28 28 28 29 31 31 30 29 30 31 32 32 32 31 32 33 33 32 31 30 31 32 32 27 32 31 33 34 37 39 39
30 29 30 29 28 28 32 32 32 26 25 26 28 29 29 30 32 33 30 27 28 30 34 35 35 34 34 35 34 31 28 28 26 28 29 29 30 30 32 33 35 38 39
29 29 29 28 28 25 29 31 31 26 23 26 29 30 31 31 32 32 30 28 27 29 30 31 31 33 34 33 33 32 31 27 28 26 28 28 29 29 27 29 33 33 33

GFSMA_sfc_temp_021.txt.gz
Temp
69 70 69 69 69 69 68 67 67 66 65 65 66 66 66 67 67 71 71 60 62 64 66 68 68 69 69 69 69 69 69 70 70 70 70 69 69 69 68 68 67 67 68
68 69 68 68 68 68 68 66 65 66 65 65 64 64 64 66 67 66 70 67 60 63 64 66 67 68 68 68 68 68 68 69 68 69 69 69 68 67 67 67 67 67 67
68 67 68 68 69 68 66 65 64 64 64 63 63 63 63 64 64 64 66 67 66 59 61 63 64 64 65 66 67 67 68 68 68 69 69 68 68 68 68 67 67 67 67
67 66 67 67 68 66 66 65 64 64 63 63 64 65 65 64 63 64 65 66 66 68 61 60 61 62 63 64 65 66 68 68 67 67 68 67 67 67 67 67 67 67 67
66 66 67 67 66 66 64 64 63 62 63 63 64 64 64 64 64 65 64 63 64 66 67 58 58 59 61 62 63 65 66 67 66 66 65 66 65 66 66 66 67 67 67
65 65 66 65 65 64 64 63 61 62 63 63 64 63 63 63 64 63 64 65 64 63 65 64 66 64 58 60 61 63 64 66 66 65 64 63 63 63 64 65 65 66 67
65 64 65 65 64 62 63 62 62 59 60 61 59 60 61 61 60 62 63 63 62 64 63 64 66 66 65 58 58 60 62 62 63 64 64 62 61 61 61 63 64 64 65
64 63 63 64 63 62 61 61 59 60 60 61 59 59 56 60 59 59 61 61 60 62 61 62 62 61 63 64 60 57 57 59 60 61 62 63 62 61 61 61 62 64 65
64 63 62 62 62 61 61 61 60 58 59 60 59 59 54 53 59 58 57 59 59 59 60 60 59 60 60 61 59 57 53 54 57 59 60 61 61 61 61 61 61 61 64
62 62 61 60 60 61 59 60 61 59 58 58 56 57 56 56 54 54 55 56 57 56 56 58 58 58 58 60 56 53 50 52 53 56 57 59 60 61 61 61 61 61 62
61 60 59 58 58 59 58 57 57 55 57 53 56 56 53 53 52 52 51 53 53 55 55 55 56 56 57 58 58 56 51 50 51 53 55 56 57 59 61 61 61 61 61
59 56 55 54 54 54 53 54 53 52 53 52 51 52 50 51 50 48 46 47 48 51 54 54 53 55 56 57 55 51 50 49 50 52 53 54 55 56 59 61 61 61 61
56 53 52 52 51 51 51 51 50 49 49 46 43 41 41 40 39 37 37 38 41 49 51 53 54 54 54 55 55 50 51 48 49 50 51 52 53 54 55 56 58 60 60
52 50 50 51 50 50 50 50 45 44 42 39 38 37 36 37 39 39 38 37 37 43 48 48 53 53 54 54 53 48 54 48 47 47 48 50 50 52 52 53 54 57 58
50 49 50 50 50 50 47 45 42 41 42 42 41 40 40 41 42 42 43 43 39 37 42 48 48 52 53 54 52 52 53 50 46 46 46 47 48 49 50 50 50 51 54
49 49 50 49 48 49 48 47 46 46 44 43 43 42 43 45 45 45 45 45 44 41 38 46 48 50 51 52 51 51 51 49 47 45 45 45 46 47 48 48 48 49 49
49 48 48 48 46 45 46 47 46 46 46 45 46 45 45 45 45 45 46 46 45 44 39 44 48 49 47 47 49 50 50 50 50 45 43 44 44 45 45 45 46 46 47
47 46 45 42 41 42 46 46 44 44 43 43 44 44 44 45 44 44 43 42 43 44 41 38 43 44 44 46 46 46 48 50 50 47 44 43 44 44 44 44 44 44 44
43 43 42 43 45 44 44 44 43 43 43 43 42 41 41 40 39 41 41 40 41 42 41 39 39 43 43 45 44 45 45 46 48 46 43 43 43 43 44 44 44 44 43
45 46 45 44 43 43 43 43 43 42 41 41 41 40 39 39 38 38 38 38 39 38 39 37 37 39 40 42 42 39 39 43 42 46 44 43 43 43 43 43 43 43 43
45 44 40 41 40 40 41 40 41 40 39 39 39 40 39 39 37 37 37 38 37 35 34 32 32 35 36 36 34 38 37 40 41 43 41 42 44 45 45 44 44 43 43
44 42 41 39 39 40 36 36 37 39 38 36 35 37 38 36 37 35 34 34 34 32 31 32 32 32 34 36 37 36 35 33 32 42 39 38 42 41 44 46 43 41 41
41 40 39 39 38 37 35 35 35 36 35 35 35 35 36 37 35 36 34 33 32 33 32 33 30 32 33 36 37 34 34 34 35 40 38 35 40 38 43 41 40 40 40
39 38 38 37 37 37 34 33 33 35 34 34 35 35 34 34 33 32 32 32 34 35 35 36 35 36 37 38 38 37 36 35 37 39 39 29 37 36 40 42 40 40 40
38 37 37 36 35 34 33 32 32 33 32 32 34 34 34 32 33 33 31 30 32 35 37 36 35 35 36 35 36 35 32 30 30 34 38 32 35 35 38 38 40 40 39
36 35 34 35 33 32 31 31 32 32 30 31 33 35 33 33 31 31 31 30 29 32 34 34 35 36 36 37 35 34 34 31 32 32 38 34 35 37 32 39 40 41 40

GFSMA_sfc_temp_024.txt.gz
Temp
77 78 77 78 78 79 78 76 76 76 74 73 74 73 74 74 74 78 79 62 62 65 67 68 69 69 69 68 68 68 69 70 69 70 70 69 68 69 68 68 68 67 67
77 77 77 77 78 78 78 76 75 75 75 74 73 72 73 75 74 73 77 72 62 63 66 66 67 67 67 68 68 68 68 68 69 69 69 68 68 68 68 68 67 67 67
76 75 77 77 78 78 75 74 74 74 73 74 72 72 72 72 73 72 74 75 68 60 63 63 64 65 66 66 66 67 68 68 68 68 68 68 68 68 66 66 66 66 67
75 75 76 76 77 76 76 75 74 73 73 73 72 74 73 73 72 71 73 73 74 75 62 61 63 63 64 64 65 66 67 67 67 66 66 67 67 67 66 66 66 67 67
75 74 75 75 75 75 75 74 73 72 71 72 73 73 73 73 72 73 72 71 71 72 74 61 60 60 61 62 63 65 66 66 66 65 65 64 64 64 65 65 66 66 67
75 73 74 74 74 73 73 73 71 73 72 71 73 73 72 73 73 72 72 73 72 70 71 71 69 66 59 60 61 63 64 64 64 64 64 63 63 62 63 63 64 65 66
74 72 73 73 73 72 71 71 71 69 69 71 67 68 70 70 69 71 72 72 71 70 70 70 70 72 68 60 59 60 61 62 62 63 63 64 63 62 62 62 63 63 64
72 72 70 71 71 70 69 68 68 67 68 70 65 65 62 67 69 69 70 70 68 71 70 68 68 67 68 71 66 57 57 58 60 61 61 61 62 62 62 62 62 63 63
70 70 70 69 68 68 68 68 67 66 64 67 68 63 60 59 65 71 66 68 67 67 68 68 66 66 66 67 62 61 55 54 57 58 59 59 60 61 62 62 62 62 63
69 69 68 67 66 67 66 66 68 65 65 62 66 68 65 64 59 57 63 65 66 65 64 66 66 64 64 65 61 56 53 52 53 55 57 58 59 59 61 61 62 62 62
68 69 67 64 64 65 64 63 62 62 63 62 62 62 59 61 61 54 56 57 63 64 64 62 63 64 63 64 64 60 52 51 52 53 55 56 57 58 58 59 62 62 62
67 67 66 63 62 61 60 60 59 58 58 57 56 55 53 49 49 50 51 55 53 55 61 61 61 61 62 63 61 53 51 50 50 52 53 54 55 56 56 57 59 62 62
63 62 61 60 60 58 57 55 52 50 47 45 43 42 41 40 39 38 37 39 41 48 50 55 58 61 60 61 60 53 53 49 50 50 51 52 53 53 54 55 56 57 58
60 60 58 58 57 56 54 52 51 45 42 41 39 39 39 39 39 39 37 37 37 39 46 47 57 60 60 60 57 50 56 50 49 48 49 50 50 51 51 52 53 54 55
59 57 55 55 54 52 52 52 48 47 46 46 46 45 45 44 43 42 42 41 38 36 42 51 53 59 60 59 57 57 56 52 48 47 47 48 48 49 50 51 51 51 52
56 53 51 50 48 46 46 47 46 46 46 47 47 45 45 46 46 46 45 46 45 44 42 50 52 55 57 58 56 55 55 50 48 46 45 46 46 47 48 48 48 49 50
50 48 46 44 42 42 43 45 45 46 46 47 48 47 48 51 51 51 51 50 48 48 43 48 52 54 53 53 54 54 54 54 55 46 45 45 45 45 45 45 45 46 47
48 44 42 43 46 48 47 47 48 48 47 48 48 48 48 50 48 49 49 48 48 49 46 43 48 50 50 52 52 51 52 55 54 51 45 45 45 44 44 43 43 44 44
48 48 49 50 50 49 49 49 49 48 48 47 47 46 46 46 45 46 46 46 47 48 47 45 44 48 49 50 49 50 50 51 53 49 45 43 44 44 44 43 43 43 43
51 51 50 47 47 47 48 48 47 46 46 46 45 45 45 44 44 44 44 43 44 44 44 43 43 44 46 48 48 46 45 49 48 52 49 45 45 45 43 43 42 43 43
51 50 48 49 48 48 48 43 43 44 44 44 44 44 44 43 39 39 40 41 42 42 42 39 36 38 40 40 40 43 40 43 45 46 45 45 47 49 50 44 44 44 42
50 49 48 47 46 47 36 36 37 41 42 42 41 42 43 41 41 37 36 35 36 34 33 33 34 34 36 38 40 39 39 37 35 44 42 42 44 43 47 50 46 43 43
48 46 46 45 44 44 36 35 34 39 40 41 41 41 42 43 39 38 36 35 34 33 32 34 32 34 35 38 38 36 37 36 37 42 40 37 41 40 43 45 42 41 40
45 45 44 44 43 43 36 34 33 38 39 40 40 41 39 37 36 35 34 34 35 36 37 37 37 39 39 39 38 38 38 38 39 41 40 33 39 38 42 43 41 41 40
44 43 43 41 40 40 35 33 33 35 36 36 36 36 37 35 35 34 33 32 35 37 39 38 37 37 36 36 37 38 33 33 32 36 41 37 38 37 40 40 43 41 41
43 41 39 39 37 36 34 32 33 33 30 32 34 36 35 35 33 32 32 31 30 34 35 36 36 37 37 37 35 36 36 32 33 33 40 36 37 37 33 41 42 41 43

GFSMA_sfc_temp_027.txt.gz
Temp
79 79 79 79 80 80 80 79 79 78 77 76 76 75 75 76 76 77 79 63 64 66 68 69 69 69 69 68 68 68 69 69 70 70 69 69 69 69 69 68 68 68 67
78 78 78 79 79 80 80 78 77 77 76 77 75 75 74 75 77 76 78 72 63 64 66 68 68 68 68 68 68 68 68 68 69 69 69 68 68 68 68 68 67 67 67
78 77 78 77 79 79 77 77 77 77 76 77 75 75 75 73 74 74 75 76 69 61 64 65 66 66 67 67 66 67 68 68 68 67 68 68 68 67 67 67 67 67 68
78 77 77 77 78 77 77 76 76 75 75 75 74 75 75 75 74 73 74 74 76 75 63 63 64 65 65 65 66 67 67 67 67 66 65 66 66 66 66 66 66 66 66
78 76 76 76 76 76 75 75 75 75 73 74 74 75 75 74 74 76 73 72 73 74 75 62 62 62 63 63 64 66 66 66 66 65 65 64 64 64 63 64 65 66 65
77 75 75 75 75 75 74 75 73 74 73 73 74 74 74 75 75 74 73 74 73 72 72 70 65 64 61 62 63 64 65 64 64 64 65 64 63 63 62 63 63 64 65
75 74 74 74 74 72 72 72 72 70 70 72 68 70 71 72 72 73 74 73 73 73 71 71 72 72 65 61 62 63 63 63 63 63 63 63 64 63 62 62 62 63 63
73 72 71 71 71 70 69 69 69 68 69 71 64 64 61 66 72 72 72 72 70 73 72 70 70 70 72 67 63 61 61 61 61 62 61 61 61 62 62 62 62 63 63
72 71 70 69 68 69 68 68 68 66 65 68 68 63 57 57 65 72 68 69 69 70 71 71 69 69 68 68 61 60 57 58 59 59 60 60 60 61 61 62 63 63 63
71 71 70 69 67 66 65 66 68 66 65 62 66 68 63 60 54 55 64 62 66 65 66 69 70 68 67 67 64 57 54 55 56 57 58 59 60 60 60 60 61 62 63
70 70 69 67 65 64 64 63 62 62 63 61 61 57 55 56 58 49 47 58 56 63 62 63 64 66 66 65 65 62 53 52 53 55 56 58 58 58 59 59 59 61 62
67 67 66 64 63 62 62 61 58 56 54 54 54 52 48 45 47 42 44 48 48 52 55 55 57 61 62 63 63 53 53 52 52 53 54 56 56 57 57 58 58 59 60
63 63 63 61 62 60 56 55 54 52 51 48 45 43 41 39 39 38 37 37 36 42 44 49 52 58 59 59 59 56 52 51 50 51 52 53 54 54 55 55 56 56 57
60 61 61 57 54 50 50 50 47 48 47 42 41 42 43 43 44 41 39 38 37 39 44 43 50 51 55 59 56 52 57 49 49 49 50 51 51 52 52 52 53 54 55
60 58 52 47 46 47 47 45 45 45 45 48 46 44 43 44 44 43 42 41 37 35 40 49 48 54 52 55 57 58 57 53 49 48 48 48 50 50 50 50 51 52 53
54 52 47 47 47 45 45 47 44 45 43 43 44 44 45 47 47 47 45 44 42 39 36 47 49 53 55 57 57 57 56 52 49 47 46 47 47 48 48 48 49 50 50
52 51 50 48 47 48 49 49 49 48 47 47 48 47 47 49 50 50 50 49 47 46 41 46 50 53 53 53 55 56 56 55 55 47 46 46 46 46 46 46 46 47 47
53 52 50 50 50 51 51 50 49 49 48 48 48 48 48 51 48 49 49 48 48 49 47 44 48 49 50 52 52 52 54 56 56 52 45 45 46 45 44 44 44 44 44
51 50 50 48 50 51 50 50 49 49 49 48 48 48 47 47 46 47 47 46 47 48 47 45 45 49 50 51 50 51 52 52 54 51 46 43 44 45 45 43 43 43 43
49 49 50 51 51 52 51 51 50 47 46 47 47 46 46 45 45 45 45 45 45 44 44 44 44 45 47 49 49 47 47 50 50 54 51 47 47 46 45 44 43 43 43
52 52 52 51 51 50 50 46 45 43 43 43 45 46 46 45 41 41 41 41 41 40 41 41 42 43 43 42 41 45 43 45 46 47 47 47 48 48 48 45 45 44 43
50 51 50 49 48 50 36 36 37 40 40 41 41 43 45 44 43 39 38 37 37 35 34 34 35 36 37 38 39 38 39 37 34 44 41 41 45 44 47 48 45 42 42
50 48 48 48 47 47 37 36 35 38 38 39 41 41 42 45 42 43 38 36 35 34 33 34 32 34 35 38 39 37 37 37 36 41 41 37 42 40 44 47 43 42 42
47 47 46 46 45 45 36 35 34 37 38 38 39 39 40 39 39 37 36 36 36 37 38 38 36 38 39 40 39 39 38 38 38 40 42 34 40 38 41 43 43 42 41
46 45 45 42 40 40 37 34 34 34 34 35 37 37 37 36 36 36 32 32 34 36 40 38 37 37 37 37 37 37 33 31 32 35 41 37 38 37 39 40 42 42 41
45 44 40 39 36 36 36 35 34 33 30 32 34 36 35 35 34 33 32 31 30 33 34 36 36 38 38 38 35 36 35 31 32 32 39 36 36 39 33 40 41 42 42

GFSMA_sfc_temp_030.txt.gz
Temp
69 69 69 69 68 69 68 67 67 67 67 68 68 67 67 66 67 66 62 64 65 67 68 70 70 70 70 69 68 68 69 69 70 70 69 69 69 69 68 68 68 68 68
68 68 68 68 68 68 67 66 66 65 65 66 66 67 66 66 65 65 65 58 63 65 66 69 69 70 69 69 68 68 68 68 69 69 69 68 68 68 68 67 67 67 68
69 69 67 67 67 67 67 66 66 65 65 67 66 66 65 64 64 64 64 63 60 62 63 66 67 68 68 68 67 67 68 67 67 67 67 68 67 67 65 67 67 67 67
71 67 66 66 67 66 66 64 64 63 63 63 62 63 64 64 64 64 64 64 63 64 61 63 64 66 67 67 67 68 68 67 67 66 66 66 66 65 66 65 66 67 67
70 67 65 65 66 65 64 64 64 62 61 62 64 63 63 62 63 69 64 63 62 64 60 61 62 63 64 66 66 67 68 67 66 66 65 64 64 64 64 64 65 65 65
69 66 65 64 65 64 63 62 61 62 61 61 67 67 65 65 64 60 62 66 63 64 63 60 58 58 61 64 65 66 67 67 66 66 65 64 64 63 63 63 63 64 64
68 65 64 64 62 61 60 61 60 59 60 60 59 60 61 63 62 65 64 61 63 65 63 63 58 58 58 62 64 65 67 67 66 65 64 64 64 63 62 62 63 62 63
66 66 62 61 61 59 58 57 57 57 58 58 56 57 53 57 60 64 64 65 64 66 65 64 63 62 60 57 56 64 65 66 65 64 64 63 62 62 62 62 63 63 63
66 64 62 60 59 58 56 55 56 55 55 56 56 54 50 49 54 58 60 57 59 61 62 64 64 64 61 58 58 59 58 60 63 63 62 62 61 61 62 62 62 63 63
63 62 61 59 57 57 55 55 59 54 53 51 54 57 52 49 45 46 53 55 56 57 56 54 54 60 63 58 57 55 54 54 58 60 61 61 60 61 61 61 61 62 62
60 61 59 57 55 55 54 53 51 49 50 48 47 46 46 46 48 45 43 46 51 50 51 51 49 51 52 57 58 55 53 52 54 57 58 58 60 60 60 60 60 60 60
57 57 58 55 54 53 51 50 49 49 49 47 45 45 43 41 40 39 38 39 40 44 45 46 47 49 51 49 58 54 52 51 52 54 55 56 58 58 58 58 59 59 59
54 54 54 51 49 48 48 48 47 46 46 44 42 41 41 40 40 39 37 37 37 40 42 44 44 47 50 49 53 53 52 50 51 52 53 54 55 55 56 56 57 57 57
52 50 49 48 47 47 46 46 45 45 45 43 42 42 41 42 42 41 38 36 35 37 42 41 46 46 47 48 49 52 51 49 49 50 50 51 52 52 53 53 53 54 55
54 49 47 46 45 45 46 45 43 42 43 42 41 42 42 42 41 40 40 39 35 31 33 41 42 48 46 47 48 48 51 49 48 48 48 49 50 51 51 51 51 51 52
50 49 47 46 45 44 44 44 45 45 43 41 41 41 42 43 43 43 42 41 40 36 32 40 43 46 49 53 50 50 50 51 48 47 46 47 48 49 49 49 49 49 50
50 48 49 46 47 47 46 44 43 44 42 42 42 43 42 44 43 43 42 42 41 40 34 39 44 46 47 47 50 49 50 48 46 46 45 46 46 46 47 47 47 47 48
50 49 48 47 47 47 47 46 44 44 43 42 43 42 42 47 40 40 40 40 40 41 38 36 39 41 43 45 46 45 50 53 48 49 46 45 46 46 45 44 44 44 45
47 46 47 47 47 47 46 45 45 44 42 41 40 40 41 41 39 38 39 40 40 43 40 38 37 38 39 41 42 43 43 43 49 50 46 44 44 45 45 44 44 44 44
46 46 47 47 47 47 47 45 44 40 39 39 39 39 40 40 39 38 37 35 38 35 35 35 35 36 37 40 40 38 35 39 40 50 49 46 44 45 45 44 44 43 43
47 47 46 45 44 46 43 37 38 37 35 36 36 39 39 41 42 39 39 35 34 32 31 32 31 32 33 33 33 33 32 32 34 37 36 37 38 39 41 43 44 44 43
46 45 44 43 42 47 36 36 35 33 35 34 33 35 38 40 40 40 39 37 35 30 29 29 30 28 30 32 33 30 30 28 28 34 32 30 35 35 38 39 43 43 43
44 42 42 42 40 39 37 36 35 33 32 32 33 34 35 40 37 37 36 36 35 35 32 30 28 29 29 31 32 31 29 30 30 33 33 31 29 32 35 42 42 42 42
40 39 39 39 37 39 37 35 34 31 30 31 31 32 32 31 33 33 32 31 32 34 35 36 32 31 33 35 35 34 33 32 31 32 33 29 30 32 31 33 41 43 42
39 39 39 36 34 33 36 36 33 29 29 29 31 31 32 31 34 35 31 29 30 31 37 38 35 36 35 36 36 33 29 27 26 29 32 32 31 31 32 33 34 41 41
40 36 35 34 35 32 36 36 35 29 25 28 29 31 33 33 32 31 29 28 26 28 30 31 31 33 35 35 35 34 31 28 27 26 31 30 31 28 27 31 35 33 31

GFSMA_sfc_temp_033.txt.gz
Temp
63 63 63 63 63 63 62 61 62 63 63 63 64 64 63 63 63 62 58 63 65 67 70 71 71 71 70 70 69 68 69 69 70 70 69 68 68 68 68 68 68 67 68
63 63 62 63 62 62 61 61 61 61 61 62 63 63 63 62 63 62 60 58 63 65 67 69 70 71 71 70 68 68 68 68 68 69 69 68 68 68 67 67 67 67 68
63 63 61 61 61 61 61 61 61 60 59 61 61 61 62 62 61 62 61 58 58 62 64 66 68 69 69 69 68 67 68 68 68 68 68 68 67 67 66 67 67 67 68
66 62 61 60 61 61 61 59 59 59 58 57 57 59 60 60 61 61 63 60 59 61 61 63 65 66 67 68 69 68 68 67 67 66 66 66 66 66 66 64 64 66 67
64 61 60 60 60 59 59 58 58 56 56 56 59 59 57 57 58 64 61 61 59 59 58 61 63 63 65 66 68 68 69 68 67 66 65 65 65 65 64 64 65 65 64
64 60 59 59 59 57 56 55 54 55 55 55 62 62 58 56 57 56 57 62 61 60 58 58 59 60 61 65 66 67 69 69 68 67 66 65 64 63 63 63 63 64 64
62 60 58 58 57 56 54 55 53 52 54 53 53 56 54 55 55 56 56 56 56 59 61 58 58 58 59 63 64 66 68 69 69 68 66 65 64 63 63 63 63 63 63
61 61 56 55 55 53 53 52 51 49 50 51 48 50 47 51 53 55 54 56 55 54 58 61 58 57 58 59 59 64 66 68 68 67 66 64 64 63 62 63 63 63 63
58 56 55 53 52 52 50 49 50 48 46 48 48 45 43 41 46 51 52 53 51 51 52 55 57 59 57 55 58 60 60 62 66 66 65 64 63 62 62 62 62 62 63
56 56 54 52 51 50 49 48 49 46 45 42 45 49 44 45 41 41 46 50 46 47 46 48 51 53 54 54 57 56 55 56 60 63 64 63 62 62 61 62 61 61 62
54 54 54 51 48 47 46 45 45 45 48 47 45 44 44 41 39 35 36 40 44 45 45 45 47 49 52 52 51 52 53 53 54 59 61 61 61 61 61 60 60 60 61
51 50 50 47 46 45 44 43 43 45 42 43 43 41 40 38 39 38 37 37 37 41 42 43 43 47 48 49 51 49 50 50 52 56 58 58 59 59 59 59 59 59 59
46 45 45 44 43 43 43 43 44 42 41 40 41 41 39 37 40 39 37 36 35 37 37 41 43 46 48 47 48 49 49 48 50 52 54 55 56 56 56 56 57 57 57
44 44 44 43 43 43 42 41 41 41 40 40 38 42 41 41 41 39 38 36 32 34 34 36 41 43 43 45 46 47 47 46 46 48 51 52 53 53 53 53 54 54 54
49 44 43 43 42 42 41 41 39 39 39 38 38 39 38 39 41 41 40 39 34 29 31 37 36 42 43 43 45 45 45 46 46 46 47 49 51 51 51 52 52 52 52
46 45 44 42 42 42 43 40 39 40 39 38 38 37 37 38 39 40 42 40 39 36 32 35 40 40 44 48 46 45 45 46 47 45 45 47 48 50 50 50 50 50 51
44 44 45 46 45 45 45 42 41 41 40 39 39 39 39 40 37 37 38 37 37 37 33 37 38 41 39 41 46 45 46 45 45 46 45 46 46 46 47 47 47 48 48
43 44 46 45 45 44 44 43 41 41 39 36 36 36 37 41 35 36 35 35 35 35 33 32 33 35 37 40 40 41 46 51 48 47 45 46 45 45 45 45 44 45 45
42 42 43 43 43 42 42 41 39 38 36 36 36 36 35 35 34 35 36 34 34 38 33 30 30 33 34 36 39 39 40 41 46 48 45 43 44 45 45 44 44 44 44
42 41 43 43 42 41 39 38 38 34 33 34 34 34 34 34 33 34 35 34 35 31 30 29 29 30 31 34 34 32 31 34 35 44 43 42 43 45 44 44 43 43 43
43 42 41 41 40 39 38 33 33 31 30 31 32 34 34 36 39 38 36 33 31 29 27 27 26 27 27 28 29 29 28 29 30 33 33 35 35 36 38 42 43 43 43
42 41 40 38 35 39 36 36 33 29 30 30 29 31 31 35 36 36 37 36 34 30 28 27 27 26 27 28 30 27 26 25 25 30 29 27 32 32 35 36 41 42 42
38 38 37 35 34 33 36 36 35 30 29 28 27 28 30 35 32 32 33 34 34 35 32 31 27 27 27 29 30 27 26 25 27 29 28 28 25 28 32 39 41 42 42
36 37 34 33 32 36 37 37 35 29 27 28 28 28 28 28 30 31 30 29 29 30 31 33 31 30 30 32 32 32 30 31 31 30 31 27 29 30 29 31 39 41 42
35 34 33 32 30 30 35 35 34 27 27 27 29 29 29 29 32 34 29 26 27 28 34 36 37 36 36 34 34 32 29 27 27 28 27 28 29 29 27 28 30 39 40
34 32 31 31 33 29 34 36 31 22 22 26 26 28 30 30 31 30 28 27 24 26 27 27 29 31 33 32 34 32 30 27 27 27 31 28 28 27 21 26 32 33 31

GFSMA_sfc_temp_036.txt.gz
Temp
60 60 60 60 59 59 58 58 59 60 60 61 62 61 61 61 60 60 58 62 64 67 70 72 72 72 72 70 69 69 69 69 70 69 69 69 68 68 68 68 67 67 67
61 61 60 60 59 59 59 58 59 59 59 59 60 61 61 60 60 60 59 58 62 64 67 70 71 72 72 71 69 68 68 68 69 69 68 68 68 67 67 67 66 67 67
61 60 59 59 59 59 58 58 58 57 57 59 58 58 59 60 59 59 60 58 58 61 63 66 68 70 70 71 70 69 68 67 68 68 68 67 67 67 67 67 65 65 67
62 60 59 58 58 57 57 55 55 55 54 54 54 56 56 57 58 58 58 58 57 60 60 63 65 67 68 69 70 70 69 68 67 67 67 67 67 67 66 65 65 65 65
62 59 58 56 56 56 55 55 54 52 52 52 56 56 55 55 56 60 58 58 56 58 60 61 62 63 65 67 69 70 70 69 68 67 66 66 66 66 65 65 64 64 65
61 57 56 56 55 54 53 52 51 51 51 50 56 56 51 52 53 53 54 58 56 56 56 58 60 62 62 65 67 69 70 70 70 69 67 66 65 65 64 64 64 64 63
59 55 54 53 53 52 50 51 50 49 49 49 47 50 49 51 51 50 51 52 54 55 55 55 54 58 61 62 65 67 69 70 70 69 68 66 65 63 63 63 63 63 63
56 56 52 51 51 50 49 48 47 46 46 46 44 44 42 47 46 51 51 52 47 50 50 52 53 54 56 57 60 64 67 69 69 69 68 66 64 63 63 63 62 62 63
54 52 51 50 49 48 46 45 45 44 43 44 44 44 39 37 42 46 49 46 44 45 45 47 51 53 54 53 55 58 59 62 67 68 68 65 64 64 63 62 62 62 62
52 52 50 48 47 46 45 45 47 44 47 45 44 47 43 43 35 37 41 45 42 44 42 43 44 47 51 52 53 52 52 53 58 65 66 65 64 63 62 62 62 62 62
51 51 49 47 45 45 44 43 42 42 42 41 40 38 38 38 37 34 33 37 40 40 40 40 41 44 48 49 50 51 49 49 51 58 63 64 64 62 62 61 61 61 60
47 47 47 45 44 43 42 42 41 41 40 40 39 37 39 38 38 37 36 37 36 37 40 39 40 42 44 45 50 49 49 48 48 51 58 61 62 62 61 61 60 60 60
43 44 44 43 42 42 42 41 40 39 38 37 37 36 38 40 40 39 37 35 35 38 35 38 40 42 45 42 46 47 48 46 47 48 50 56 58 59 59 59 58 58 58
44 44 43 42 42 42 42 40 38 38 38 36 36 37 38 41 39 39 37 35 33 35 35 34 37 39 40 41 44 46 45 44 45 45 46 47 52 54 55 55 55 55 55
47 43 42 42 41 41 41 40 38 37 37 37 36 36 36 36 37 36 36 38 35 30 32 33 33 39 39 40 42 42 44 44 44 44 44 45 47 50 52 52 53 53 53
43 42 42 41 40 44 44 40 39 39 38 38 39 37 36 36 36 36 38 37 37 34 31 34 35 37 39 44 45 43 43 45 44 44 44 44 45 46 49 49 50 51 52
42 41 42 42 43 41 42 41 40 40 39 37 35 35 35 37 35 34 34 34 33 33 31 32 35 36 35 36 40 41 43 42 43 44 44 44 44 45 46 47 48 49 49
42 41 42 42 42 41 40 39 37 36 35 34 34 34 35 38 33 32 31 31 32 34 31 28 30 32 33 35 35 35 42 46 44 46 45 45 45 45 45 44 44 45 46
41 40 41 40 40 40 37 36 35 34 33 33 33 33 33 32 31 31 31 31 32 36 31 29 28 30 31 32 32 35 36 36 42 45 43 43 43 44 44 44 44 44 44
40 40 40 40 39 37 36 35 34 31 31 32 31 31 30 30 30 30 31 30 31 29 29 28 27 28 29 31 30 29 29 31 32 40 42 41 42 44 44 44 43 43 43
43 42 40 38 37 36 36 32 32 30 29 29 30 30 31 33 36 35 33 31 29 28 27 27 27 26 26 25 25 27 27 27 28 31 32 33 33 34 36 40 42 44 43
41 40 37 36 35 38 36 36 33 29 30 29 27 29 29 32 31 33 33 34 33 30 28 27 27 26 26 25 26 25 24 23 21 29 28 26 31 31 33 35 40 41 42
38 38 36 34 32 32 36 37 36 31 28 27 26 27 29 33 31 30 31 32 32 33 31 30 28 27 27 27 26 25 24 24 24 29 27 26 24 26 30 37 40 41 41
36 36 32 32 31 34 36 36 35 29 27 27 27 27 27 27 27 29 29 28 28 28 29 30 29 29 29 30 29 29 28 26 28 32 28 24 24 26 26 30 38 40 41
35 32 32 30 29 29 34 35 29 25 26 25 28 28 28 27 30 32 28 26 27 27 33 34 34 35 35 34 34 32 29 28 26 28 25 26 26 23 24 27 29 37 39
33 31 31 30 32 27 33 34 31 23 17 24 25 27 29 28 29 30 27 25 24 26 26 26 27 28 31 30 32 30 28 25 25 24 28 26 24 24 21 24 30 30 30

GFSMA_sfc_temp_039.txt.gz
Temp
59 59 59 58 57 57 57 57 57 57 57 58 58 58 59 59 59 58 57 62 63 67 70 72 73 73 72 71 69 69 69 69 69 69 69 68 68 68 68 68 66 66 67
59 58 58 59 58 57 57 56 55 55 55 56 57 57 58 57 58 58 58 57 61 63 66 70 72 73 73 72 70 69 69 68 68 68 68 68 68 67 67 67 66 66 66
59 59 58 57 56 56 56 55 55 54 54 55 54 55 56 57 56 57 57 57 57 60 62 64 67 69 71 72 71 69 68 68 67 68 68 68 67 67 67 66 66 67 67
60 57 56 55 55 55 54 53 52 52 51 51 50 52 53 54 55 55 55 55 55 57 59 61 63 66 67 69 71 71 70 68 67 67 67 67 67 66 67 67 66 66 66
58 55 54 53 54 53 52 52 51 50 49 49 52 51 50 50 51 55 53 54 53 53 54 58 60 61 63 66 69 71 72 71 69 68 67 67 66 66 66 66 66 65 65
59 57 54 55 55 54 50 49 49 49 48 47 53 52 48 49 48 48 49 53 51 51 51 52 52 54 58 62 64 67 70 71 71 70 69 68 66 66 65 64 64 64 64
57 55 55 52 50 50 48 49 47 46 46 45 44 46 46 47 46 46 47 47 48 49 49 49 50 51 53 57 59 62 66 69 71 70 69 68 66 65 64 63 63 63 63
53 53 50 51 53 52 49 46 45 44 44 43 42 41 39 44 43 49 46 47 43 45 47 48 48 49 50 51 52 57 59 63 67 69 68 67 66 64 63 63 63 63 63
52 50 50 48 47 46 44 43 43 42 41 42 42 41 36 34 38 43 45 42 40 42 43 43 45 46 48 48 51 52 53 53 58 61 65 67 65 64 63 63 63 63 63
50 50 48 46 45 44 43 42 46 42 41 40 41 44 40 38 33 32 38 40 41 42 40 40 40 43 46 46 50 50 50 50 52 56 59 62 65 64 64 63 63 62 62
49 49 47 45 43 43 42 41 40 40 40 39 38 37 36 36 35 34 32 36 40 40 38 39 38 40 43 44 45 48 49 47 49 52 55 59 61 64 63 63 62 62 62
45 44 45 43 43 42 41 40 40 39 38 38 38 36 39 38 38 37 36 32 33 36 37 38 37 39 41 41 47 48 47 46 47 50 52 55 57 60 63 62 62 62 61
42 43 43 42 41 41 41 40 39 38 37 36 35 35 37 37 39 39 37 34 34 37 36 37 37 38 42 39 41 46 47 45 45 46 47 51 51 52 55 61 61 61 60
43 43 42 41 41 41 40 40 37 37 37 36 35 36 36 37 38 40 37 35 32 34 32 32 36 37 37 37 42 46 42 46 45 45 45 46 48 49 50 54 58 58 58
44 42 41 40 40 40 40 40 37 36 36 36 36 37 37 36 36 35 35 36 33 28 31 35 32 37 37 37 40 40 40 44 45 44 44 43 45 47 47 49 49 53 54
42 41 40 39 39 39 39 39 37 37 36 35 36 35 34 34 34 33 34 33 32 31 27 32 33 34 37 41 42 37 39 45 45 44 43 42 43 45 46 45 46 46 49
40 40 40 40 40 39 39 37 37 36 34 33 32 32 33 35 34 35 32 32 31 30 28 31 32 34 34 34 36 36 39 38 39 43 43 44 42 42 44 44 44 45 45
41 40 40 40 40 39 38 36 35 34 32 31 31 31 32 36 31 30 30 29 29 30 29 28 29 30 31 33 33 32 38 42 37 44 43 44 43 43 42 43 43 44 45
41 40 41 40 39 40 37 34 34 32 31 32 31 30 30 29 28 28 28 28 29 32 29 28 28 29 29 30 30 31 32 32 39 42 42 43 43 44 44 44 44 43 43
39 40 39 40 40 37 36 35 34 31 30 31 31 30 29 28 28 28 29 28 30 29 28 28 28 28 30 30 29 28 27 29 30 37 39 39 41 42 43 43 43 43 43
39 39 40 39 37 36 36 32 32 30 29 29 30 30 30 31 35 33 31 28 27 28 28 26 26 27 26 25 25 27 25 25 27 29 30 31 33 35 35 39 41 43 43
37 39 36 37 36 37 36 36 34 29 30 30 27 29 29 31 30 33 32 32 31 27 26 26 26 25 26 25 25 25 23 22 21 27 26 25 29 30 33 34 39 41 42
35 35 36 36 33 32 36 37 36 31 28 27 26 27 28 31 30 29 29 31 31 32 30 27 26 27 26 27 26 24 23 23 24 27 26 26 23 25 30 35 39 40 41
32 32 32 32 31 33 35 35 32 26 25 26 27 27 26 26 27 28 28 27 28 29 30 30 29 28 29 29 28 29 28 27 27 27 30 26 24 25 27 27 36 38 40
34 31 31 31 30 28 34 34 29 25 25 25 27 27 27 25 28 30 27 25 26 27 32 34 34 34 34 34 33 30 27 26 24 24 25 24 25 22 22 26 28 36 38
31 31 31 30 32 27 32 33 30 21 14 23 25 26 27 28 29 29 27 25 23 27 28 28 28 29 30 30 32 29 25 24 24 20 27 25 24 24 19 22 23 25 25

GFSMA_sfc_temp_042.txt.gz
Temp
59 58 58 57 56 56 55 55 55 56 56 57 57 57 57 57 58 57 57 61 62 65 68 70 72 73 73 72 70 69 70 70 70 69 69 68 68 68 68 68 68 68 67
58 57 56 56 55 55 55 54 54 54 53 54 55 55 56 56 56 57 57 56 60 62 64 66 68 69 70 72 71 70 69 69 69 69 68 68 67 67 67 67 67 68 68
58 57 55 54 54 54 54 53 53 53 52 54 53 54 54 54 54 55 55 55 55 57 60 61 63 65 66 67 69 70 70 68 68 68 68 67 67 66 66 66 67 67 68
57 55 54 52 53 53 52 51 51 52 51 50 50 51 51 52 52 52 53 53 52 54 54 58 59 59 61 63 65 68 70 70 68 68 67 67 67 66 66 66 66 67 67
57 56 53 52 53 54 54 54 52 49 48 48 50 50 49 49 49 53 51 51 51 51 52 54 55 56 57 60 62 64 66 68 70 69 68 67 67 66 65 65 65 66 66
58 55 55 55 53 52 49 50 49 49 47 46 50 50 48 48 48 47 48 51 49 48 49 49 49 51 54 57 59 61 63 65 68 69 70 68 67 66 65 64 64 64 65
54 52 50 49 49 49 47 48 46 45 45 44 43 44 45 46 46 46 46 46 46 47 47 47 47 48 49 53 55 58 60 61 63 64 67 68 68 66 65 64 64 64 64
51 51 49 48 47 47 45 44 43 42 43 43 41 40 38 42 43 47 44 45 41 43 45 46 46 46 47 48 50 54 55 55 57 60 62 63 64 66 65 64 64 63 63
50 49 48 47 45 45 43 42 42 41 39 41 41 40 36 34 37 42 42 41 41 41 41 42 44 45 46 47 48 51 52 52 54 56 58 60 62 63 65 64 64 63 63
48 48 46 45 43 43 42 41 43 40 39 38 40 43 40 38 34 34 39 40 40 42 40 40 40 42 45 45 47 48 49 48 50 54 55 57 59 62 63 64 64 63 63
46 46 45 43 43 43 42 41 40 39 39 38 37 37 37 36 35 36 34 39 38 40 40 39 39 40 43 44 43 46 48 47 48 50 52 53 56 58 61 63 63 63 63
43 44 45 43 42 42 41 40 39 38 38 37 37 41 40 38 38 37 35 37 37 38 39 39 39 39 40 42 45 47 48 47 47 48 50 50 53 55 56 59 61 63 63
42 43 43 41 40 40 40 39 38 37 37 36 35 35 36 36 37 38 36 35 31 36 36 39 39 39 41 40 41 45 47 46 46 47 47 48 48 50 52 54 57 58 61
42 42 41 41 40 40 39 38 37 36 36 36 35 35 35 36 38 38 36 35 32 34 35 34 37 38 39 39 41 45 42 44 45 45 46 46 47 47 49 51 52 54 56
44 42 41 39 39 39 39 38 37 36 36 35 35 34 34 35 37 36 35 35 32 26 28 33 33 38 38 39 40 41 40 43 45 45 44 44 45 45 47 47 48 48 51
41 40 39 39 39 39 38 38 37 36 35 35 34 32 32 32 32 32 32 34 34 31 27 32 35 36 38 42 41 40 39 44 43 43 44 43 43 44 44 45 45 45 45
39 39 39 39 39 38 38 38 37 36 34 34 32 32 33 34 33 32 32 31 30 29 27 31 33 36 35 36 38 38 39 39 39 41 43 43 44 43 42 42 43 43 43
39 39 40 39 39 39 39 38 36 35 33 33 32 31 31 34 29 29 29 28 29 29 28 27 31 32 32 34 35 34 38 41 39 41 42 42 43 43 42 41 41 43 43
38 38 38 37 38 39 37 36 35 33 32 32 31 30 30 30 28 28 28 28 28 31 30 30 30 31 31 32 33 34 34 34 38 41 40 41 42 42 43 43 42 42 42
37 37 37 37 39 38 36 36 34 32 31 31 31 30 30 29 28 28 29 28 29 28 28 28 29 29 30 32 32 30 30 32 33 37 38 37 38 41 42 43 43 43 44
36 36 36 37 36 37 37 34 32 31 30 29 30 31 31 32 35 34 32 29 28 27 28 27 27 27 28 28 28 30 29 29 30 32 33 33 34 36 37 39 41 42 43
35 37 36 34 34 38 37 37 35 30 30 29 28 29 29 31 30 32 32 32 30 27 26 26 26 26 27 28 29 28 27 26 25 31 29 30 33 33 35 37 38 40 41
34 32 32 33 32 31 36 36 34 29 27 27 27 27 28 30 29 28 29 30 30 30 30 28 26 27 27 29 29 27 26 26 26 30 29 28 29 30 34 36 38 39 40
35 34 31 30 30 32 35 33 32 27 26 26 27 26 26 26 27 28 28 27 28 29 30 30 29 29 30 31 30 30 28 27 28 31 31 25 31 29 32 32 35 38 39
34 32 30 30 30 28 33 33 30 25 25 25 27 27 27 26 28 30 28 26 27 28 32 34 33 34 34 33 33 30 27 26 24 28 29 28 28 28 29 31 32 35 37
30 30 31 31 32 27 31 32 30 21 14 23 25 27 27 28 29 30 26 25 23 27 27 28 30 31 32 31 31 30 28 25 27 25 28 27 28 28 26 29 30 32 32

GFSMA_sfc_temp_045.txt.gz
Temp
71 72 71 72 71 72 71 70 70 70 68 68 68 68 68 69 69 71 71 62 61 63 66 67 69 69 70 70 70 70 70 70 70 70 69 68 68 68 67 68 68 68 68
68 70 69 69 69 69 69 68 68 68 68 67 67 67 67 68 68 67 70 69 59 60 61 63 64 65 66 67 67 68 69 70 70 70 69 68 67 67 66 66 67 67 68
66 67 67 66 66 66 65 66 66 67 67 66 65 67 67 67 67 65 66 67 67 58 58 59 60 61 62 64 65 66 67 68 69 69 68 68 67 67 66 66 66 67 67
64 64 65 60 64 64 65 62 64 59 63 64 63 65 65 65 64 64 64 64 64 64 61 56 57 58 59 61 63 64 65 66 67 68 68 68 67 66 66 66 66 66 66
63 64 59 63 63 63 63 63 63 61 61 61 62 63 63 64 63 65 61 60 60 60 61 57 55 56 56 58 60 62 63 65 65 66 68 68 67 67 66 65 65 65 66
64 64 63 62 63 62 61 60 58 58 58 58 59 60 61 63 62 62 60 61 59 57 58 57 59 60 54 55 57 59 61 62 62 63 65 65 66 67 66 65 65 65 65
63 62 62 61 61 60 57 57 58 56 57 57 56 57 59 59 58 60 60 58 56 57 56 56 57 58 59 55 55 56 58 59 59 60 61 61 63 63 65 66 65 65 65
61 61 60 59 58 59 56 55 54 54 56 55 52 53 52 55 58 58 58 57 54 56 56 55 54 55 56 58 55 54 54 54 56 57 58 58 60 61 63 63 65 64 64
59 59 58 58 57 58 56 55 54 52 51 54 52 50 48 47 49 56 54 54 52 53 54 54 54 54 54 56 55 54 50 50 53 55 57 57 58 59 61 63 64 65 64
57 58 57 57 56 57 54 54 55 52 51 50 52 53 50 46 40 41 52 52 53 52 52 52 52 52 53 54 52 51 48 49 49 52 54 55 55 57 59 61 63 64 64
57 57 56 56 56 56 55 53 52 51 52 49 49 47 45 48 47 41 41 47 51 52 53 51 51 51 52 52 53 52 48 48 48 50 52 53 54 55 57 58 60 63 63
57 56 56 55 55 54 53 53 51 50 50 49 49 48 47 44 44 41 38 41 42 48 50 51 50 51 52 52 52 48 48 47 47 48 50 51 51 52 53 55 57 59 61
56 56 55 54 54 52 52 51 50 49 49 48 48 47 47 46 46 44 40 36 36 43 46 49 50 51 52 52 51 48 49 46 46 47 48 48 49 50 51 52 54 56 59
57 56 54 53 52 51 50 50 49 49 48 47 47 47 46 46 46 41 38 35 34 41 45 43 48 48 50 51 50 47 50 46 45 46 47 47 47 48 48 50 50 51 54
55 53 52 51 51 51 50 50 49 48 47 47 46 45 45 45 45 44 44 42 37 32 37 44 44 49 49 49 48 49 49 47 45 45 45 45 46 47 47 47 48 48 49
52 52 51 51 51 50 50 49 48 48 46 45 45 44 44 44 44 43 43 42 41 37 34 42 44 45 46 47 47 47 48 46 45 43 43 44 44 45 45 45 46 46 46
52 50 50 50 50 49 49 47 47 46 44 43 44 43 42 43 42 42 42 41 39 38 34 39 43 44 43 43 45 47 48 48 49 43 42 43 43 43 44 43 43 44 43
51 50 49 48 48 48 47 45 44 45 43 41 42 41 41 42 40 41 40 39 38 39 36 34 38 40 41 42 43 43 45 48 48 45 42 41 42 42 43 42 42 42 42
49 48 47 46 46 45 42 41 43 41 41 41 41 40 39 39 38 39 38 38 38 38 37 33 34 39 39 39 39 41 43 44 46 43 41 41 41 41 41 42 42 41 41
46 46 45 45 43 40 38 39 42 41 40 40 39 39 39 38 38 37 36 35 35 33 33 33 34 35 36 39 38 35 36 41 42 45 43 41 39 40 40 41 42 42 42
45 45 43 41 37 39 41 41 41 40 39 39 39 38 38 36 34 34 35 34 34 32 31 31 31 32 32 33 33 36 34 36 39 42 41 43 44 45 45 42 42 42 43
43 43 41 39 41 43 37 37 38 39 38 37 36 36 37 34 35 32 31 31 32 29 28 29 30 30 31 33 34 33 32 31 30 41 38 39 43 42 44 45 41 39 40
42 41 41 41 40 40 36 36 33 38 36 35 35 34 34 34 33 33 32 31 32 32 30 30 28 30 31 34 34 33 33 31 32 37 36 33 39 38 43 44 38 39 39
42 42 41 39 39 39 35 34 32 36 35 34 34 34 33 32 32 30 32 31 32 34 34 34 32 33 34 35 35 34 34 33 34 36 36 27 37 36 41 42 39 38 38
39 39 38 38 38 37 34 33 33 34 33 32 33 33 32 31 30 30 29 28 30 32 34 33 33 33 33 34 33 32 30 29 29 32 36 30 34 36 38 39 41 38 37
39 39 37 37 34 35 32 33 33 32 29 31 32 33 30 30 29 29 28 27 25 29 30 31 32 34 35 34 32 33 33 28 30 29 38 32 36 36 33 39 41 41 41

GFSMA_sfc_temp_048.txt.gz
Temp
76 78 77 80 80 80 80 79 79 78 77 76 75 75 75 75 75 78 78 63 61 63 65 66 67 67 67 67 67 67 68 69 70 71 70 69 68 68 68 67 67 68 68
69 70 73 77 80 78 78 77 74 75 75 75 75 74 73 75 75 74 76 76 60 60 61 62 63 63 64 64 65 65 66 67 68 69 70 69 68 67 67 67 67 67 67
71 70 73 75 73 74 72 75 74 74 74 73 72 71 74 74 74 72 73 74 71 58 59 59 59 60 61 62 63 64 65 66 66 67 68 68 68 67 67 66 66 66 67
67 69 72 66 70 71 72 72 71 71 71 71 71 72 72 73 72 71 72 71 72 72 65 59 58 58 59 60 61 63 64 64 65 65 66 67 68 67 67 66 66 66 66
68 68 69 69 71 72 70 69 69 67 66 68 69 69 69 71 70 73 69 67 67 67 68 63 59 59 58 58 59 61 62 63 63 63 64 64 65 65 66 66 66 66 66
71 72 71 69 71 70 69 66 64 66 66 66 66 66 67 68 69 69 68 68 67 64 65 64 64 66 58 57 57 58 60 61 61 62 62 62 62 63 63 64 66 66 66
70 69 72 70 69 66 64 64 64 63 63 64 60 64 65 67 65 67 67 66 64 64 64 64 63 64 65 59 58 56 57 57 58 59 60 60 60 60 61 62 64 66 65
68 69 68 68 66 66 64 62 61 60 62 63 57 57 57 62 67 66 65 63 61 62 62 62 60 60 61 63 59 56 54 54 55 57 57 58 58 58 59 61 62 64 65
68 67 66 66 65 65 63 61 61 58 57 60 60 55 51 51 55 61 61 62 60 60 60 61 60 59 60 60 59 58 51 51 52 54 55 56 56 57 58 60 61 62 64
67 67 66 65 64 63 61 61 62 58 58 55 58 60 57 54 46 46 56 58 60 59 59 59 59 59 59 59 57 54 49 49 50 52 53 54 55 55 56 58 59 60 63
66 66 65 63 63 63 62 59 58 57 58 55 55 55 55 54 54 46 43 50 56 58 59 59 59 58 58 58 59 56 49 48 49 50 51 52 53 54 54 55 56 58 60
67 65 65 64 63 62 60 59 58 57 56 55 55 53 48 44 43 42 42 43 45 51 55 55 53 51 55 56 57 51 50 48 48 49 50 51 51 52 53 53 55 56 58
65 65 64 62 62 61 59 58 57 55 55 53 53 51 51 50 49 47 44 43 43 49 50 53 56 55 54 55 56 51 50 48 48 48 48 50 50 50 51 51 52 54 55
63 63 62 61 60 59 58 57 56 55 54 53 52 51 51 51 50 48 45 42 39 45 49 49 56 56 55 55 53 48 53 48 48 46 47 47 48 48 49 49 50 51 52
62 61 60 59 59 58 57 56 55 53 53 52 50 50 50 52 50 51 50 48 42 37 41 48 48 54 54 54 53 52 51 49 47 46 45 45 46 47 48 48 48 49 50
60 59 59 59 58 58 57 55 54 54 52 51 52 50 50 50 50 50 50 49 48 43 39 47 48 50 51 52 51 51 50 48 46 46 44 44 44 45 45 46 46 47 47
59 58 58 57 57 56 55 53 52 52 48 50 50 49 48 49 48 49 48 48 46 45 40 44 48 49 48 48 49 48 49 50 51 46 44 43 43 43 43 43 44 44 45
57 56 56 55 55 54 53 50 48 47 46 47 48 48 47 49 46 47 47 45 45 45 42 39 44 44 44 46 46 45 46 49 49 48 43 42 42 42 42 42 42 43 43
55 55 54 53 52 51 49 47 45 43 45 47 47 46 46 45 44 45 45 43 43 44 42 38 38 41 42 44 43 43 43 44 48 46 44 42 42 42 42 41 42 42 42
53 53 52 50 45 44 43 41 44 45 46 46 46 45 45 44 43 42 41 41 42 41 39 35 35 36 39 41 41 39 40 43 43 47 46 43 42 44 43 41 41 41 42
52 51 49 47 46 46 47 45 46 46 46 45 45 45 44 41 37 36 37 38 38 36 35 33 33 34 35 37 37 40 39 40 42 43 42 44 46 48 49 44 43 43 42
51 50 49 48 47 48 36 37 37 46 45 44 42 43 43 40 39 34 34 33 33 32 31 30 31 31 34 35 37 36 36 35 33 43 39 38 44 43 46 50 41 40 40
48 46 45 46 45 46 37 35 35 43 43 42 41 41 41 41 38 39 35 33 33 32 30 32 30 32 33 35 36 35 35 35 35 39 39 35 41 39 43 47 42 40 39
46 42 41 43 45 45 35 34 33 42 42 41 41 40 39 38 38 33 32 32 34 35 35 36 35 34 35 37 36 35 34 35 37 39 40 32 37 37 42 44 41 40 39
45 45 41 42 43 43 35 34 34 40 39 38 39 40 38 36 33 30 30 29 31 33 36 34 34 33 33 34 35 33 32 31 30 33 39 35 37 36 40 41 42 40 39
44 45 44 44 39 41 34 33 34 37 32 35 38 39 35 33 29 30 29 28 26 30 32 32 33 35 36 37 34 35 35 31 32 32 39 33 37 39 34 42 43 44 43